ISR044 LLER-LLBG

Flight info

Callsign ISR044
Flight time 0h 23m
Altitude 18000
Route NURIT J10 AMMIT
Aircraft A320/M-SDE2FGIJ1LORVWY/SB1

Departure

Time 2026-05-08 12:25
Airport Ramon International Airport (LLER)

Arrival

Time 2026-05-08 12:48
Airport Ben Gurion International Airport (LLBG)
Time Latitude Longitude Altitude Speed Heading
2026-05-08 12:11 29.72460 35.00767 298 ft 0 kts 284°
2026-05-08 12:14 29.72460 35.00768 298 ft 0 kts 284°
2026-05-08 12:19 29.72460 35.00769 298 ft 2 kts 284°
2026-05-08 12:19 29.72454 35.00797 298 ft 4 kts 282°
2026-05-08 12:19 29.72449 35.00827 299 ft 4 kts 276°
2026-05-08 12:20 29.72449 35.00858 297 ft 4 kts 257°
2026-05-08 12:20 29.72459 35.00880 299 ft 2 kts 189°
2026-05-08 12:20 29.72460 35.00880 299 ft 3 kts 187°
2026-05-08 12:21 29.72461 35.00880 299 ft 0 kts 187°
2026-05-08 12:23 29.72451 35.00886 301 ft 9 kts 152°
2026-05-08 12:23 29.72403 35.00991 298 ft 14 kts 94°
2026-05-08 12:23 29.72353 35.01085 301 ft 16 kts 175°
2026-05-08 12:23 29.72241 35.01087 298 ft 17 kts 137°
2026-05-08 12:24 29.72204 35.01224 300 ft 14 kts 101°
2026-05-08 12:24 29.72242 35.01279 298 ft 9 kts 17°
2026-05-08 12:24 29.72354 35.01310 300 ft 40 kts 13°
2026-05-08 12:24 29.72850 35.01447 298 ft 103 kts 13°
2026-05-08 12:25 29.73704 35.01684 392 ft 139 kts 13°
2026-05-08 12:25 29.74625 35.01938 970 ft 136 kts
2026-05-08 12:25 29.75572 35.02058 1322 ft 141 kts
2026-05-08 12:25 29.76547 35.02186 1754 ft 142 kts
2026-05-08 12:26 29.77525 35.02325 2226 ft 142 kts
2026-05-08 12:26 29.78506 35.02464 2634 ft 142 kts
2026-05-08 12:26 29.79532 35.02608 2816 ft 157 kts
2026-05-08 12:26 29.80721 35.02773 2892 ft 185 kts
2026-05-08 12:27 29.82083 35.02963 3086 ft 210 kts
2026-05-08 12:27 29.83614 35.03177 3416 ft 233 kts
2026-05-08 12:27 29.85305 35.03415 3849 ft 254 kts
2026-05-08 12:27 29.87082 35.03667 4646 ft 261 kts
2026-05-08 12:28 29.88883 35.03921 5409 ft 268 kts
2026-05-08 12:28 29.90763 35.04190 6141 ft 276 kts
2026-05-08 12:28 29.92694 35.04472 6850 ft 284 kts
2026-05-08 12:28 29.94214 35.04697 7412 ft 287 kts
2026-05-08 12:29 29.96308 35.05008 8199 ft 292 kts
2026-05-08 12:29 29.98338 35.05309 8978 ft 296 kts
2026-05-08 12:29 30.00400 35.05613 9753 ft 301 kts
2026-05-08 12:29 30.02501 35.05920 10322 ft 312 kts
2026-05-08 12:30 30.04730 35.06244 10522 ft 334 kts
2026-05-08 12:30 30.07119 35.06593 10662 ft 357 kts
2026-05-08 12:30 30.09652 35.07034 10787 ft 378 kts
2026-05-08 12:30 30.12304 35.07582 10912 ft 397 kts 10°
2026-05-08 12:31 30.15058 35.08189 11303 ft 407 kts 10°
2026-05-08 12:31 30.17851 35.08804 11892 ft 410 kts 10°
2026-05-08 12:31 30.20669 35.09417 12514 ft 413 kts
2026-05-08 12:31 30.23463 35.10008 13144 ft 415 kts
2026-05-08 12:32 30.26316 35.10572 13803 ft 417 kts
2026-05-08 12:32 30.29190 35.11107 14370 ft 419 kts
2026-05-08 12:32 30.35323 35.12221 15564 ft 424 kts
2026-05-08 12:32 30.47080 35.14471 17648 ft 433 kts
2026-05-08 12:33 30.58960 35.17713 17778 ft 433 kts 22°
2026-05-08 12:33 30.66013 35.21246 17979 ft 446 kts 20°
2026-05-08 12:33 30.68876 35.22621 18068 ft 445 kts 20°
2026-05-08 12:33 30.71745 35.23997 18066 ft 444 kts 20°
2026-05-08 12:34 30.74601 35.25376 18066 ft 444 kts 21°
2026-05-08 12:34 30.77451 35.26767 18066 ft 444 kts 21°
2026-05-08 12:34 30.80295 35.28168 18067 ft 444 kts 21°
2026-05-08 12:34 30.82856 35.29432 18065 ft 444 kts 21°
2026-05-08 12:35 30.92726 35.34288 18081 ft 444 kts 18°
2026-05-08 12:35 31.04866 35.36161 17811 ft 444 kts
2026-05-08 12:35 31.12915 35.37055 17082 ft 436 kts
2026-05-08 12:35 31.16590 35.38280 13845 ft 443 kts 47°
2026-05-08 12:36 31.19011 35.40973 12812 ft 466 kts 33°
2026-05-08 12:36 31.21839 35.42380 13561 ft 434 kts 12°
2026-05-08 12:36 31.24702 35.42881 13130 ft 421 kts
2026-05-08 12:36 31.27613 35.42422 12151 ft 422 kts 342°
2026-05-08 12:37 31.30346 35.41402 11929 ft 405 kts 341°
2026-05-08 12:37 31.33244 35.40305 11660 ft 396 kts 342°
2026-05-08 12:37 31.38692 35.39920 11180 ft 396 kts
2026-05-08 12:37 31.44098 35.41168 10702 ft 395 kts 14°
2026-05-08 12:38 31.49330 35.42695 10250 ft 393 kts 13°
2026-05-08 12:38 31.52847 35.43596 9947 ft 385 kts 12°
2026-05-08 12:38 31.56050 35.44554 9515 ft 386 kts 21°
2026-05-08 12:38 31.61167 35.46084 9271 ft 381 kts
2026-05-08 12:39 31.66364 35.46840 9023 ft 380 kts
2026-05-08 12:39 31.71552 35.46987 8751 ft 357 kts 346°
2026-05-08 12:39 31.75456 35.44379 8498 ft 301 kts 309°
2026-05-08 12:39 31.77423 35.40211 8266 ft 290 kts 292°
2026-05-08 12:40 31.79136 35.35876 7714 ft 294 kts 293°
2026-05-08 12:40 31.80865 35.31527 7036 ft 294 kts 293°
2026-05-08 12:40 31.82575 35.27230 6446 ft 287 kts 293°
2026-05-08 12:40 31.84174 35.23191 6180 ft 256 kts 292°
2026-05-08 12:41 31.85233 35.20504 5651 ft 256 kts 294°
2026-05-08 12:41 31.85999 35.18553 5148 ft 266 kts 295°
2026-05-08 12:41 31.86717 35.16729 4999 ft 254 kts 296°
2026-05-08 12:41 31.87425 35.14925 4988 ft 233 kts 296°
2026-05-08 12:42 31.88080 35.13258 4992 ft 218 kts 295°
2026-05-08 12:42 31.88692 35.11663 5034 ft 213 kts 292°
2026-05-08 12:42 31.89295 35.10065 4657 ft 217 kts 299°
2026-05-08 12:42 31.90050 35.08492 4099 ft 223 kts 302°
2026-05-08 12:43 31.90834 35.06978 3740 ft 216 kts 303°
2026-05-08 12:43 31.91592 35.05529 3428 ft 200 kts 303°
2026-05-08 12:43 31.92290 35.04194 3175 ft 183 kts 302°
2026-05-08 12:43 31.92935 35.02959 2936 ft 172 kts 304°
2026-05-08 12:44 31.93560 35.01764 2678 ft 170 kts 304°
2026-05-08 12:44 31.94160 35.00627 2550 ft 154 kts 304°
2026-05-08 12:44 31.94700 34.99580 2248 ft 144 kts 305°
2026-05-08 12:44 31.95214 34.98598 2031 ft 141 kts 305°
2026-05-08 12:45 31.95718 34.97637 1827 ft 136 kts 306°
2026-05-08 12:45 31.96209 34.96686 1660 ft 137 kts 306°
2026-05-08 12:45 31.96709 34.95727 1481 ft 136 kts 305°
2026-05-08 12:45 31.97041 34.95103 1355 ft 135 kts 305°
2026-05-08 12:46 31.97532 34.94166 1171 ft 134 kts 304°
2026-05-08 12:46 31.98014 34.93219 1009 ft 135 kts 304°
2026-05-08 12:46 31.98668 34.91974 736 ft 134 kts 304°
2026-05-08 12:46 31.99147 34.91050 527 ft 131 kts 304°
2026-05-08 12:47 31.99478 34.90424 391 ft 134 kts 303°
2026-05-08 12:47 31.99962 34.89499 157 ft 134 kts 302°
2026-05-08 12:47 32.00394 34.88664 119 ft 100 kts 301°
2026-05-08 12:47 32.00674 34.88125 117 ft 61 kts 301°
2026-05-08 12:48 32.00878 34.87731 120 ft 52 kts 301°
2026-05-08 12:48 32.01047 34.87369 120 ft 50 kts 285°
2026-05-08 12:48 32.01058 34.87078 120 ft 22 kts 242°
2026-05-08 12:48 32.00997 34.87066 120 ft 7 kts 123°
2026-05-08 12:49 32.00920 34.87219 118 ft 29 kts 113°
2026-05-08 12:49 32.00808 34.87345 120 ft 20 kts 181°
2026-05-08 12:49 32.00697 34.87380 118 ft 15 kts 178°
2026-05-08 12:49 32.00647 34.87379 119 ft 0 kts 181°